| time (UTC) | temp F | wind direction | speed MPH | gust MPH | rain 1hr in | rain 24hr in | rain mn in | humidity % | barometer mb |
| 20260903230022 | 74 | 165 | 0.0 | 2.0 | 0.00 | 0.21 | 0.21 | 86 | 1010.3 |
| 20260903224519 | 75 | 165 | 0.0 | 3.0 | 0.00 | 0.21 | 0.21 | 85 | 1010.4 |
| 20260903223018 | 75 | 165 | 0.0 | 3.0 | 0.00 | 0.21 | 0.21 | 84 | 1010.6 |
| 20260903221539 | 77 | 171 | 0.0 | 4.0 | 0.00 | 0.21 | 0.21 | 82 | 1010.7 |
| 20260903220018 | 77 | 171 | 0.0 | 2.0 | 0.00 | 0.21 | 0.21 | 79 | 1010.7 |
| 20260903214516 | 78 | 171 | 0.0 | 3.0 | 0.00 | 0.21 | 0.21 | 79 | 1010.4 |
| 20260903213021 | 79 | 172 | 0.0 | 4.0 | 0.00 | 0.21 | 0.21 | 79 | 1010.3 |
| 20260903211517 | 78 | 273 | 0.0 | 3.0 | 0.00 | 0.21 | 0.21 | 78 | 1010.5 |
| 20260903210016 | 79 | 155 | 0.0 | 2.0 | 0.00 | 0.21 | 0.21 | 78 | 1010.6 |
| 20260903204515 | 78 | 155 | 0.0 | 2.0 | 0.00 | 0.21 | 0.21 | 78 | 1010.4 |
| 20260903203020 | 79 | 155 | 0.0 | 7.0 | 0.00 | 0.21 | 0.21 | 77 | 1010.4 |
| 20260903201512 | 80 | 151 | 0.0 | 5.0 | 0.00 | 0.21 | 0.21 | 75 | 1010.6 |
| 20260903200020 | 80 | 150 | 0.0 | 5.0 | 0.00 | 0.21 | 0.21 | 75 | 1010.7 |
| 20260903194522 | 80 | 153 | 0.0 | 6.0 | 0.00 | 0.21 | 0.21 | 75 | 1010.8 |
| 20260903193007 | 79 | 168 | 1.0 | 7.0 | 0.00 | 0.21 | 0.21 | 77 | 1011.1 |
| 20260903191505 | 79 | 150 | 1.0 | 5.0 | 0.00 | 0.21 | 0.21 | 78 | 1011.2 |
| 20260903190004 | 78 | 221 | 0.0 | 2.0 | 0.00 | 0.21 | 0.21 | 80 | 1011.4 |
| 20260903184503 | 78 | 236 | 0.0 | 2.0 | 0.00 | 0.21 | 0.21 | 79 | 1011.4 |
| 20260903183002 | 79 | 124 | 0.0 | 8.0 | 0.00 | 0.21 | 0.21 | 79 | 1011.5 |
| 20260903181559 | 79 | 138 | 0.0 | 7.0 | 0.00 | 0.21 | 0.21 | 81 | 1011.6 |
| 20260903180115 | 80 | 259 | 1.0 | 4.0 | 0.00 | 0.21 | 0.21 | 79 | 1011.7 |
| 20260903174555 | 78 | 147 | 0.0 | 7.0 | 0.00 | 0.21 | 0.21 | 81 | 1011.8 |
| 20260903173054 | 77 | 156 | 0.0 | 7.0 | 0.00 | 0.21 | 0.21 | 80 | 1011.9 |
| 20260903171555 | 78 | 153 | 0.0 | 8.0 | 0.00 | 0.21 | 0.21 | 82 | 1012.1 |
| 20260903170056 | 77 | 63 | 0.0 | 3.0 | 0.00 | 0.21 | 0.21 | 80 | 1012.1 |
| 20260903164559 | 77 | 150 | 0.0 | 3.0 | 0.00 | 0.21 | 0.21 | 82 | 1012.1 |
| 20260903163049 | 76 | 150 | 0.0 | 7.0 | 0.00 | 0.21 | 0.21 | 82 | 1012.0 |
| 20260903161547 | 75 | 144 | 1.0 | 6.0 | 0.00 | 0.21 | 0.21 | 82 | 1012.0 |
| 20260903160043 | 74 | 157 | 1.0 | 5.0 | 0.00 | 0.21 | 0.21 | 85 | 1012.2 |
| 20260903154539 | 74 | 157 | 0.0 | 3.0 | 0.00 | 0.21 | 0.21 | 86 | 1012.4 |
| 20260903153036 | 73 | 157 | 1.0 | 3.0 | 0.01 | 0.21 | 0.21 | 87 | 1012.5 |
| 20260903151534 | 73 | 158 | 1.0 | 3.0 | 0.01 | 0.21 | 0.21 | 88 | 1012.6 |
| 20260903150032 | 73 | 154 | 1.0 | 5.0 | 0.01 | 0.21 | 0.21 | 90 | 1012.8 |
| 20260903144528 | 72 | 198 | 0.0 | 3.0 | 0.01 | 0.21 | 0.21 | 91 | 1013.1 |
| 20260903143027 | 72 | 177 | 0.0 | 5.0 | 0.00 | 0.20 | 0.20 | 92 | 1013.2 |
| 20260903141522 | 71 | 178 | 0.0 | 3.0 | 0.00 | 0.20 | 0.20 | 92 | 1013.5 |
| 20260903140027 | 71 | 146 | 0.0 | 4.0 | 0.00 | 0.20 | 0.20 | 92 | 1013.8 |
| 20260903134521 | 71 | 155 | 1.0 | 5.0 | 0.00 | 0.20 | 0.20 | 92 | 1013.7 |
| 20260903133021 | 71 | 134 | 0.0 | 3.0 | 0.00 | 0.20 | 0.20 | 93 | 1013.5 |
| 20260903131518 | 71 | 134 | 0.0 | 3.0 | 0.00 | 0.20 | 0.20 | 93 | 1013.7 |
| 20260903130024 | 71 | 134 | 1.0 | 4.0 | 0.00 | 0.20 | 0.20 | 93 | 1013.7 |
| 20260903124515 | 70 | 154 | 1.0 | 7.0 | 0.00 | 0.20 | 0.20 | 93 | 1013.7 |
| 20260903123016 | 70 | 142 | 1.0 | 4.0 | 0.00 | 0.20 | 0.20 | 92 | 1013.8 |
| 20260903121511 | 69 | 153 | 1.0 | 5.0 | 0.00 | 0.20 | 0.20 | 92 | 1014.0 |
| 20260903120010 | 68 | 153 | 0.0 | 3.0 | 0.01 | 0.20 | 0.20 | 92 | 1014.3 |
| 20260903114506 | 68 | 153 | 1.0 | 6.0 | 0.01 | 0.20 | 0.20 | 92 | 1014.3 |
| 20260903113007 | 67 | 164 | 1.0 | 6.0 | 0.01 | 0.20 | 0.20 | 92 | 1014.5 |
| 20260903111501 | 66 | 169 | 0.0 | 2.0 | 0.01 | 0.20 | 0.20 | 92 | 1014.6 |
| 20260903110123 | 66 | 161 | 3.0 | 7.0 | 0.01 | 0.19 | 0.19 | 92 | 1014.6 |
| 20260903104558 | 66 | 165 | 5.0 | 10.0 | 0.01 | 0.19 | 0.19 | 91 | 1014.3 |
| 20260903103154 | 66 | 160 | 2.0 | 9.0 | 0.06 | 0.19 | 0.19 | 91 | 1014.2 |
| 20260903101604 | 65 | 166 | 0.0 | 5.0 | 0.14 | 0.19 | 0.19 | 91 | 1014.3 |
| 20260903100051 | 65 | 163 | 3.0 | 6.0 | 0.15 | 0.18 | 0.18 | 91 | 1014.5 |
| 20260903094554 | 65 | 150 | 2.0 | 7.0 | 0.16 | 0.18 | 0.18 | 90 | 1014.4 |
| 20260903093047 | 65 | 158 | 3.0 | 8.0 | 0.12 | 0.13 | 0.13 | 90 | 1014.4 |
| 20260903091545 | 65 | 162 | 0.0 | 7.0 | 0.05 | 0.05 | 0.05 | 89 | 1014.6 |
| 20260903090044 | 64 | 147 | 1.0 | 7.0 | 0.03 | 0.03 | 0.03 | 89 | 1014.6 |
| 20260903084540 | 64 | 165 | 0.0 | 4.0 | 0.02 | 0.02 | 0.02 | 88 | 1014.7 |
| 20260903083039 | 64 | 160 | 0.0 | 6.0 | 0.01 | 0.01 | 0.01 | 87 | 1015.1 |
| 20260903081543 | 64 | 134 | 0.0 | 4.0 | 0.00 | 0.00 | 0.00 | 87 | 1015.1 |
| 20260903080036 | 64 | 167 | 1.0 | 6.0 | 0.00 | 0.00 | 0.00 | 88 | 1015.3 |
| 20260903074537 | 64 | 174 | 0.0 | 4.0 | 0.00 | 0.00 | 0.00 | 87 | 1015.4 |
| 20260903073032 | 64 | 138 | 0.0 | 2.0 | 0.00 | 0.00 | 0.00 | 87 | 1015.7 |
| 20260903071533 | 63 | 138 | 0.0 | 2.0 | 0.00 | 0.00 | 0.00 | 86 | 1015.9 |
| 20260903070035 | 64 | 155 | 1.0 | 3.0 | 0.00 | 0.00 | 0.00 | 84 | 1016.3 |
| 20260903064525 | 64 | 155 | 0.0 | 3.0 | 0.00 | 0.00 | 0.00 | 83 | 1016.5 |
| 20260903063024 | 64 | 155 | 0.0 | 0.0 | 0.00 | 0.00 | 0.00 | 83 | 1016.7 |
| 20260903061527 | 64 | 155 | 0.0 | 2.0 | 0.00 | 0.00 | 0.00 | 82 | 1016.7 |
| 20260903060021 | 64 | 155 | 0.0 | 2.0 | 0.00 | 0.00 | 0.00 | 81 | 1017.0 |
| 20260903054537 | 64 | 156 | 1.0 | 5.0 | 0.00 | 0.00 | 0.00 | 81 | 1017.3 |
| 20260903053016 | 64 | 144 | 0.0 | 1.0 | 0.00 | 0.00 | 0.00 | 81 | 1017.4 |
| 20260903051515 | 64 | 144 | 0.0 | 1.0 | 0.00 | 0.00 | 0.00 | 80 | 1017.6 |
| 20260903050014 | 64 | 144 | 0.0 | 4.0 | 0.00 | 0.00 | 0.00 | 80 | 1017.9 |
| 20260903044512 | 63 | 138 | 0.0 | 7.0 | 0.00 | 0.00 | 0.00 | 81 | 1018.1 |
| 20260903043010 | 63 | 123 | 0.0 | 2.0 | 0.00 | 0.00 | 0.00 | 82 | 1017.9 |
| 20260903041507 | 62 | 171 | 0.0 | 2.0 | 0.00 | 0.00 | 0.00 | 85 | 1017.9 |
| 20260903040004 | 61 | 171 | 0.0 | 0.0 | 0.00 | 0.00 | 0.00 | 86 | 1017.8 |
| 20260903034502 | 60 | 171 | 0.0 | 0.0 | 0.00 | 0.00 | 0.00 | 86 | 1018.1 |
| 20260903033112 | 61 | 171 | 0.0 | 0.0 | 0.00 | 0.00 | 0.00 | 85 | 1018.2 |
| 20260903031559 | 61 | 171 | 0.0 | 0.0 | 0.00 | 0.00 | 0.00 | 85 | 1018.4 |
| 20260903030100 | 61 | 171 | 0.0 | 0.0 | 0.00 | 0.00 | 0.00 | 85 | 1018.5 |
| 20260903024559 | 61 | 171 | 0.0 | 0.0 | 0.00 | 0.00 | 0.00 | 85 | 1018.7 |
| 20260903023058 | 62 | 171 | 0.0 | 0.0 | 0.00 | 0.00 | 0.00 | 84 | 1018.8 |
| 20260903021607 | 62 | 171 | 0.0 | 1.0 | 0.00 | 0.00 | 0.00 | 82 | 1018.5 |
| 20260903020057 | 62 | 171 | 0.0 | 4.0 | 0.00 | 0.00 | 0.00 | 82 | 1018.8 |
| 20260903014556 | 62 | 136 | 0.0 | 0.0 | 0.00 | 0.01 | 0.00 | 82 | 1018.8 |
| 20260903013104 | 63 | 136 | 0.0 | 1.0 | 0.00 | 0.01 | 0.00 | 81 | 1019.0 |
| 20260903011559 | 63 | 136 | 0.0 | 1.0 | 0.00 | 0.01 | 0.00 | 81 | 1019.0 |
| 20260903010110 | 63 | 136 | 0.0 | 1.0 | 0.00 | 0.01 | 0.00 | 80 | 1019.0 |
| 20260903004558 | 63 | 136 | 0.0 | 0.0 | 0.00 | 0.01 | 0.00 | 80 | 1018.9 |
| 20260903003054 | 64 | 136 | 0.0 | 0.0 | 0.00 | 0.01 | 0.00 | 79 | 1019.0 |
| 20260903001554 | 64 | 136 | 0.0 | 0.0 | 0.00 | 0.01 | 0.00 | 77 | 1019.2 |
| 20260902234552 | 65 | 136 | 0.0 | 1.0 | 0.00 | 0.01 | 0.00 | 74 | 1019.8 |
| 20260902233052 | 66 | 136 | 1.0 | 4.0 | 0.00 | 0.01 | 0.00 | 72 | 1019.7 |
| 20260902231553 | 67 | 109 | 0.0 | 3.0 | 0.00 | 0.01 | 0.00 | 73 | 1019.9 |